Simultaneous Nadir Overpasses (SNOs) Predictions

Prediction of SNOs between METOP-A and TERRA Satellite Orbit:

Table of predicted SNOs for the next 14.0 days since TLE Epoch: 7/26/2014
Index Date (METOP-A) Time (METOP-A) Lat,Lon (METOP-A) SZA (METOP-A ) Date (TERRA) Time (TERRA) Lat,Lon (TERRA) SZA (TERRA ) Distance(km) Time Diff (sec)
1 07/28/2014 09:21:06 81.28, 86.49 64.99 07/28/2014 09:21:34 81.27, 86.38 64.99 2.13 28
2 07/28/2014 10:11:46 -81.29,-105.71 114.95 07/28/2014 10:11:00 -81.29,-105.69 114.97 0.42 46
3 07/31/2014 04:55:29 81.28, 153.17 65.70 07/31/2014 04:55:52 81.28, 153.02 65.69 2.58 23
4 07/31/2014 05:46:10 -81.29, -39.39 114.28 07/31/2014 05:45:19 -81.28, -39.40 114.31 0.58 51
5 08/03/2014 00:29:54 81.28,-140.57 66.39 08/03/2014 00:30:12 81.28,-140.66 66.39 1.67 18
6 08/
